Time,B instrument,Bx,By,Bz,sigma B,Ion instrument,Status,Tp_par,Tp_perp,carrot,r_sun,clat,clong,earth_he_angle,n_p,vp_x,vp_y,vp_z,vth_p_par,vth_p_perp
1980-12-20 00:36:12,-1,nan,nan,nan,nan,1,3,nan,nan,1703,0.4382515,7.1837816,203.61026,251.40323,nan,365.678,-40.5332,41.226,nan,nan
1980-12-20 01:19:24,-1,nan,nan,nan,nan,1,3,nan,nan,1703,0.43863797,7.1852026,203.29041,251.47791,nan,354.998,-28.9846,34.3326,nan,nan
1980-12-20 02:02:36,-1,nan,nan,nan,nan,1,3,nan,nan,1703,0.43902451,7.1866035,202.9704,251.55243,nan,364.5,13.6022,28.1544,nan,nan
1980-12-20 02:45:48,-1,nan,nan,nan,nan,1,3,nan,nan,1703,0.43941122,7.1879663,202.65015,251.62671,nan,347.196,11.5987,0.959191,nan,nan
1980-12-20 04:08:24,-1,nan,nan,nan,nan,1,3,nan,nan,1703,0.44015789,7.1905327,202.03917,251.76964,nan,356.184,21.3391,-5.47296,nan,nan
1980-12-20 04:13:48,-1,nan,nan,nan,nan,1,3,nan,nan,1703,0.44020289,7.1906824,201.99696,251.77821,nan,401.03,33.9286,-21.2131,nan,nan
1980-12-20 04:19:12,-1,nan,nan,nan,nan,1,4,nan,nan,1703,0.44025689,7.1908627,201.95648,251.78851,nan,nan,nan,nan,nan,nan
1980-12-20 04:21:19,-1,nan,nan,nan,nan,1,3,nan,nan,1703,0.44027489,7.1909227,201.94038,251.79195,nan,375.443,6.58318,45.97,nan,nan
1980-12-20 04:26:43,1,12.9667,-5.0,-14.8,1.24186,1,1,156814.0,132435.0,1703,0.4403199,7.1910725,201.90208,251.80052,46.6688,354.654,-55.4022,-22.4403,50.8804,46.7584
1980-12-20 04:32:07,1,14.1667,-4.6,-14.6,0.385861,1,1,110788.0,133424.0,1703,0.4403739,7.1912527,201.86159,251.81081,42.7257,355.972,-1.55483,32.4565,42.7665,46.9327
1980-12-20 04:37:31,1,16.425,0.75,-9.95,2.56746,1,1,103168.0,129393.0,1703,0.4404189,7.1914024,201.8233,251.8194,39.927,345.821,-24.157,28.9802,41.2696,46.2182
1980-12-20 05:13:30,-1,nan,nan,nan,nan,1,3,nan,nan,1703,0.44074291,7.1924715,201.55295,251.88107,nan,364.89,19.7577,25.7358,nan,nan
1980-12-20 05:16:12,1,7.85,-14.65,-15.15,0.618466,1,1,79747.2,115557.0,1703,0.44076991,7.1925592,201.53464,251.8862,36.9933,368.193,20.9057,27.6437,36.284,43.6774
1980-12-20 05:18:54,1,7.875,-14.175,-16.55,0.557898,1,1,68357.5,101570.0,1703,0.44078797,7.1926174,201.51463,251.88963,35.084,370.084,20.1167,28.9037,33.5932,40.9488
1980-12-20 05:21:36,1,5.8,-18.4,-12.05,1.13027,1,1,75860.2,105477.0,1703,0.44081497,7.1927042,201.49242,251.89476,34.8328,382.439,34.6835,12.4105,35.3887,41.7288
1980-12-20 05:24:20,1,5.33333,-15.8333,-15.9333,1.03923,1,1,71749.1,98959.2,1703,0.44084197,7.1927919,201.47411,251.89989,34.2694,379.53,25.3841,26.4483,34.4165,40.419
1980-12-20 05:27:02,-1,nan,nan,nan,nan,1,4,nan,nan,1703,0.44086897,7.1928797,201.4558,251.90501,nan,nan,nan,nan,nan,nan
1980-12-20 05:29:44,1,14.3,-13.3,-10.5333,1.25786,2,1,86690.4,144534.0,1703,0.44088697,7.1929379,201.43187,251.90843,45.402,359.948,4.81869,30.8099,37.8306,48.8475
1980-12-20 05:32:26,1,9.15,-15.75,-10.4,1.27475,2,1,78877.4,117492.0,1703,0.44091398,7.1930256,201.41356,251.91356,43.5373,349.562,13.0537,15.8472,36.0856,44.0415
1980-12-20 05:35:08,1,6.75,-13.7,-16.3,1.02103,2,1,130429.0,176874.0,1703,0.44094098,7.1931124,201.39525,251.91869,59.8266,358.404,17.2363,19.9339,46.4029,54.0368
1980-12-20 05:37:50,1,8.55,-14.0,-14.8,0.855862,2,1,65030.5,106868.0,1703,0.44095898,7.1931705,201.37132,251.9221,36.6252,381.033,29.6864,18.6656,32.7655,42.0031
1980-12-20 05:40:32,1,12.65,-10.15,-16.0,0.430116,2,1,57531.5,132102.0,1703,0.44098604,7.1932583,201.35303,251.92725,39.6109,356.392,18.2057,17.5413,30.8184,46.6996
1980-12-20 05:43:14,1,8.13333,-11.2667,-17.2,1.39921,2,1,75320.5,86668.5,1703,0.44101304,7.193346,201.33472,251.93237,33.0901,364.639,26.1149,16.9102,35.2626,37.8258
1980-12-20 05:45:56,1,10.1,-12.0333,-15.0,0.825967,2,1,93365.6,143346.0,1703,0.44103104,7.1934042,201.31079,251.93579,46.656,364.88,24.7079,16.3856,39.2601,48.6465
1980-12-20 05:48:38,1,8.63333,-14.2333,-13.1333,1.03602,2,1,100831.0,121631.0,1703,0.44105804,7.1934919,201.29248,251.94092,44.2876,359.94,29.9665,12.753,40.7994,44.8105
1980-12-20 05:51:20,1,12.0,-12.2333,-12.4,0.659966,2,1,99639.4,102141.0,1703,0.44108504,7.1935787,201.27417,251.94604,41.6463,358.868,21.9484,12.9762,40.5577,41.0638
1980-12-20 05:54:02,1,15.35,-11.9,-7.7,2.16852,2,1,59268.7,119664.0,1703,0.44111204,7.1936665,201.25195,251.95117,37.1358,365.352,42.0322,2.72774,31.2803,44.4468
1980-12-20 05:56:42,1,3.35,-13.45,-17.0,0.430116,2,1,64990.7,76161.7,1703,0.44113004,7.1937246,201.23193,251.95459,32.992,387.997,37.7438,23.8493,32.7554,35.459
1980-12-20 06:02:06,-1,nan,nan,nan,nan,2,3,nan,nan,1703,0.4411841,7.1938982,201.19531,251.96484,nan,415.397,43.6789,9.10126,nan,nan
1980-12-20 06:04:48,1,11.7,-11.0,-16.8,0.0,2,1,84506.5,107170.0,1703,0.4412021,7.1939545,201.17137,251.96825,40.9353,372.315,20.6612,32.6883,37.3511,42.0623
1980-12-20 06:07:32,1,7.6,-9.05,-20.8,0.320156,2,1,56890.7,98384.3,1703,0.4412291,7.1940403,201.15305,251.97336,40.8881,375.311,12.5285,43.5515,30.6463,40.3015
1980-12-20 06:10:14,-1,nan,nan,nan,nan,1,4,nan,nan,1703,0.44125611,7.1941252,201.13472,251.97847,nan,nan,nan,nan,nan,nan
1980-12-20 06:12:56,-1,nan,nan,nan,nan,1,4,nan,nan,1703,0.44127417,7.1941814,201.11078,251.98187,nan,nan,nan,nan,nan,nan
1980-12-20 06:15:38,1,9.6,-8.3,-20.6,0.2,1,1,68771.7,90879.1,1703,0.44130117,7.1942663,201.09245,251.98698,32.6951,369.675,8.67434,41.1086,33.6948,38.7338
1980-12-20 06:18:20,1,9.96667,-10.8333,-18.4667,0.454606,1,1,65818.3,88907.9,1703,0.44132817,7.1943512,201.07413,251.9921,34.0941,365.019,14.6528,36.0264,32.9633,38.3114
1980-12-20 06:21:02,1,10.5667,-7.6,-19.9333,0.253859,1,1,69746.7,88103.8,1703,0.44135517,7.194437,201.0519,251.99721,32.8206,362.945,6.08552,38.7259,33.9328,38.1378
1980-12-20 06:23:44,1,7.33333,-9.8,-20.8,0.674949,1,1,68880.5,79510.3,1703,0.44137323,7.1944933,201.03188,252.00063,30.2887,374.033,16.1734,37.9168,33.7214,36.2301
1980-12-20 06:26:26,-1,nan,nan,nan,nan,1,4,nan,nan,1703,0.44140023,7.1945782,201.01353,252.00572,nan,nan,nan,nan,nan,nan
1980-12-20 06:29:08,1,18.7,-6.55,-11.4,0.206155,2,1,68921.4,146963.0,1703,0.44142723,7.194663,200.9913,252.01083,44.9242,340.06,13.965,-0.594139,33.7314,49.2564
1980-12-20 06:31:50,1,17.4,-8.0,-12.0,0.2,2,1,52100.1,110710.0,1703,0.44144523,7.1947203,200.97128,252.01425,32.4667,345.43,18.7302,12.0198,29.3276,42.7514
1980-12-20 06:34:32,1,20.9,-6.1,-4.6,0.0,2,1,61257.6,81154.7,1703,0.44147223,7.1948051,200.95296,252.01936,33.866,337.082,8.65249,-13.5424,31.8008,36.6028
1980-12-20 06:37:14,1,20.4,-6.5,1.4,0.0,2,1,88658.2,126118.0,1703,0.44149929,7.19489,200.93073,252.02448,51.1698,338.357,12.0988,-15.5869,38.2576,45.6296
1980-12-20 06:39:56,1,20.55,-5.3,-1.0,0.45,2,1,125533.0,184758.0,1703,0.44151729,7.1949463,200.91069,252.02788,52.0348,334.176,-4.20298,-29.6271,45.5236,55.228
1980-12-20 06:42:38,1,20.4,-1.0,2.8,0.223607,2,1,87318.3,134285.0,1703,0.44154429,7.1950321,200.89236,252.03299,46.1387,336.036,3.43723,-28.8028,37.9674,47.0838
1980-12-20 06:45:20,1,19.7,0.85,6.0,0.269258,2,1,135879.0,167655.0,1703,0.4415713,7.195117,200.87013,252.0381,53.8018,340.237,-6.29746,-43.1563,47.3624,52.6097
1980-12-20 06:48:02,1,19.7,-1.4,5.1,0.331662,2,1,124224.0,131263.0,1703,0.44159836,7.1952019,200.85181,252.04321,51.1215,335.033,-3.04035,-40.7206,45.2856,46.551
1980-12-20 06:50:44,1,10.0333,-9.16667,13.8,1.86667,2,1,97253.5,137916.0,1703,0.44161636,7.1952581,200.83177,252.04662,49.2963,357.713,10.2828,-57.5509,40.0692,47.7161
1980-12-20 06:53:26,1,18.2667,8.23333,8.2,0.603692,2,1,55337.1,83339.6,1703,0.44164336,7.195343,200.81345,252.05173,32.0408,342.376,-32.3765,-45.8718,30.225,37.0923
1980-12-20 06:56:08,1,17.7,7.35,7.4,0.320156,2,1,82727.1,117300.0,1703,0.44167036,7.1954288,200.79121,252.05684,44.1061,353.473,-28.2639,-48.62,36.9557,44.0055
1980-12-20 06:58:50,1,17.5,7.1,7.2,0.0,2,1,107501.0,149444.0,1703,0.44168836,7.1954851,200.77118,252.06024,55.9149,345.571,-21.2907,-43.0513,42.1274,49.6704
1980-12-20 07:01:32,1,15.65,8.35,9.1,0.524404,2,1,133300.0,107005.0,1703,0.44171542,7.195569,200.75285,252.06535,47.1711,351.047,-27.2858,-53.5951,46.9108,42.0301
1980-12-20 07:04:14,1,14.95,6.0,11.0,0.206155,2,1,93055.8,103890.0,1703,0.44174242,7.195652,200.73061,252.07045,46.2951,353.601,-34.2813,-48.9901,39.1949,41.4138
1980-12-20 07:06:56,1,13.5,9.36667,10.9333,1.08218,2,1,110916.0,130026.0,1703,0.44176042,7.1957073,200.71056,252.07384,46.8208,348.227,-25.8059,-45.9884,42.7912,46.3312
1980-12-20 07:09:38,-1,nan,nan,nan,nan,1,4,nan,nan,1703,0.44178748,7.1957893,200.69221,252.07893,nan,nan,nan,nan,nan,nan
1980-12-20 07:12:20,-1,nan,nan,nan,nan,1,4,nan,nan,1703,0.44181448,7.1958723,200.66997,252.08403,nan,nan,nan,nan,nan,nan
1980-12-20 07:15:02,-1,nan,nan,nan,nan,1,4,nan,nan,1703,0.44184154,7.1959543,200.65163,252.08913,nan,nan,nan,nan,nan,nan
1980-12-20 07:17:44,1,20.75,2.95,0.0,0.494975,1,1,72703.4,96332.5,1703,0.44185954,7.1960096,200.63158,252.09251,35.74,333.433,-9.40424,-16.2219,34.6446,39.879
1980-12-20 07:20:26,1,20.5667,0.6,-3.46667,0.362093,1,1,106036.0,97772.1,1703,0.44188654,7.1960917,200.60933,252.09761,40.8174,333.14,-6.19099,-14.203,41.8392,40.1759
1980-12-20 07:23:08,1,16.55,7.925,7.8,1.21011,1,1,83702.0,98519.9,1703,0.4419136,7.1961746,200.59099,252.10271,35.6546,341.185,-29.9055,-34.5974,37.1728,40.3292
1980-12-20 07:28:32,1,13.0667,15.7,2.26667,0.843274,2,1,163397.0,122381.0,1703,0.44195861,7.196312,200.54869,252.11119,47.5363,350.623,-50.7652,-27.5712,51.9374,44.9485
1980-12-20 07:31:14,1,11.15,1.75,15.0,0.430116,2,1,288708.0,142940.0,1703,0.44198567,7.196394,200.53035,252.11629,61.6499,345.103,-37.2309,-52.083,69.0379,48.5774
1980-12-20 07:33:56,1,17.6,4.0,7.2,0.0,2,1,64380.2,91623.8,1703,0.44200367,7.1964493,200.5103,252.11967,38.2198,345.434,-9.00956,-53.2775,32.6012,38.8922
1980-12-20 07:36:38,1,18.25,5.45,5.2,0.474342,2,1,178325.0,187336.0,1703,0.44203067,7.1965322,200.48805,252.12477,64.7152,338.996,-19.9392,-32.4082,54.258,55.612
1980-12-20 07:39:20,1,17.2,9.83333,2.33333,1.10655,2,1,101906.0,92972.1,1703,0.44205773,7.1966143,200.46971,252.12987,36.4937,338.467,-33.0177,-25.526,41.0164,39.1773
1980-12-20 07:42:02,1,18.4,10.0,2.8,0.3,2,1,135848.0,154663.0,1703,0.44208473,7.1966972,200.45137,252.13496,58.689,348.135,-33.5462,-26.8185,47.357,50.5302
1980-12-20 07:44:44,1,17.05,11.85,-0.2,0.886002,2,1,149447.0,122347.0,1703,0.44210273,7.1967516,200.43132,252.13835,51.0631,352.737,-41.2523,-20.0394,49.6708,44.9422
1980-12-20 07:47:26,1,16.55,13.6,0.8,0.287228,2,1,98049.2,82571.3,1703,0.44212979,7.1968346,200.40907,252.14345,41.8954,356.627,-38.7203,-24.7811,40.2328,36.9209
1980-12-20 07:50:08,1,14.8,11.6,5.46667,0.262467,2,1,73768.1,109246.0,1703,0.44215679,7.1969166,200.39073,252.14854,43.3046,345.74,-44.3939,-41.8322,34.8973,42.4679
1980-12-20 07:52:50,1,17.9,11.1,1.8,0.223607,2,1,83566.3,125130.0,1703,0.44217485,7.1969719,200.37068,252.15193,42.5453,342.649,-35.514,-27.7165,37.1427,45.4504
1980-12-20 07:55:32,1,15.9,12.8667,3.0,0.607362,2,1,96075.0,110239.0,1703,0.44220185,7.1970539,200.34843,252.15703,50.9677,347.493,-32.0169,-36.6891,39.8257,42.6605
1980-12-20 07:58:14,1,17.15,12.3,2.6,0.438748,2,1,78785.1,85303.8,1703,0.44222885,7.1971369,200.33009,252.16212,39.7963,340.346,-32.9794,-24.3261,36.0645,37.5268
1980-12-20 08:00:56,1,9.83333,17.4667,7.53333,0.828654,2,1,90246.5,108556.0,1703,0.44224691,7.1971922,200.31006,252.16553,45.1345,354.422,-39.5309,-35.4414,38.5987,42.3336
1980-12-20 08:03:38,1,6.35,14.6,12.5,0.502494,2,1,81451.7,89491.2,1703,0.44227391,7.1972713,200.28778,252.17059,40.9721,375.901,-41.8205,-48.9801,36.6698,38.4369
1980-12-20 08:06:20,1,8.13333,15.7333,11.0667,0.565685,2,1,78808.2,100711.0,1703,0.44230098,7.1973515,200.26942,252.17567,46.1355,362.398,-37.6721,-45.4624,36.0698,40.7751
1980-12-20 08:09:02,-1,nan,nan,nan,nan,1,4,nan,nan,1703,0.44232798,7.1974316,200.25105,252.18074,nan,nan,nan,nan,nan,nan
1980-12-20 08:11:44,-1,nan,nan,nan,nan,1,4,nan,nan,1703,0.44234604,7.197485,200.2271,252.18413,nan,nan,nan,nan,nan,nan
1980-12-20 08:14:26,-1,nan,nan,nan,nan,1,4,nan,nan,1703,0.44237304,7.1975651,200.20874,252.18921,nan,nan,nan,nan,nan,nan
1980-12-20 08:17:08,1,17.95,-7.25,-15.0,0.254951,1,1,63594.5,86864.7,1703,0.4424001,7.1976442,200.19038,252.19429,33.851,344.41,17.1956,25.8012,32.4017,37.8686
1980-12-20 08:19:50,1,16.9,-7.15,-16.05,0.387298,1,1,63567.5,96190.5,1703,0.4424181,7.1976976,200.16641,252.19766,34.7625,343.648,12.6508,27.8743,32.3948,39.8496
1980-12-20 08:22:32,1,18.0,-5.95,-14.8,0.567891,1,1,57961.3,89648.1,1703,0.44244516,7.1977777,200.14806,252.20274,34.0068,340.392,12.3352,20.1298,30.9334,38.4706
1980-12-20 08:25:14,1,17.2333,-7.76667,-14.6667,0.509902,1,1,73536.8,90270.6,1703,0.44247216,7.1978579,200.1297,252.20782,33.6523,343.254,16.9117,23.741,34.8426,38.6039
1980-12-20 08:27:56,1,17.7,-4.3,-15.9,0.244949,2,1,55872.9,79776.5,1703,0.44249022,7.1979113,200.10573,252.2112,35.4733,340.859,7.86892,19.5391,30.371,36.2907
1980-12-20 08:30:38,1,18.4,-3.95,-15.0,0.585235,2,1,84088.3,101464.0,1703,0.44251722,7.1979914,200.08737,252.21628,42.1296,339.458,5.10127,19.5436,37.2585,40.9273
1980-12-20 08:33:20,1,16.65,-7.9,-12.5,1.10114,2,1,79301.3,106886.0,1703,0.44254428,7.1980705,200.06902,252.22136,41.0075,343.228,10.5124,10.901,36.1825,42.0066
1980-12-20 08:36:02,1,13.1,3.35,-18.0,1.67705,2,1,118677.0,92669.4,1703,0.44257128,7.1981506,200.04674,252.22643,46.9458,341.548,5.12803,26.7869,44.263,39.1134
1980-12-20 08:38:44,1,16.15,-1.85,-16.6,0.494975,2,1,89705.7,102647.0,1703,0.44258934,7.198204,200.02669,252.22981,41.3078,339.621,17.1179,9.03181,38.4829,41.1652
1980-12-20 08:41:26,1,18.5,-4.4,-13.8,0.574456,2,1,108482.0,87761.4,1703,0.44261634,7.1982841,200.00833,252.23489,45.8546,340.619,13.4782,10.233,42.3191,38.0636
1980-12-20 08:44:08,1,19.2,-4.3,-13.2,0.3,2,1,72215.6,79944.0,1703,0.4426434,7.1983643,199.98996,252.23996,39.0606,334.766,12.445,5.33209,34.5282,36.3288
1980-12-20 08:46:50,1,19.0,1.6,-14.0,0.0,2,1,64233.1,88051.4,1703,0.4426614,7.1984167,199.966,252.24335,39.8205,340.776,-4.99877,13.8807,32.564,38.1264
1980-12-20 08:49:32,1,20.3,0.15,-12.4,0.269258,2,1,58055.6,49783.4,1703,0.44268847,7.1984968,199.94765,252.24843,29.1833,330.219,-6.68665,7.48829,30.9585,28.6682
1980-12-20 08:52:14,1,19.75,-3.35,-13.3,1.13798,2,1,87434.8,81368.3,1703,0.44271547,7.1985769,199.92928,252.25349,38.5079,339.874,14.7597,10.5519,37.9927,36.651
1980-12-20 08:54:56,1,19.7667,-2.06667,-13.8667,0.216025,2,1,65255.2,92575.6,1703,0.44273353,7.1986303,199.90532,252.25688,38.1861,331.07,2.97089,9.05429,32.822,39.0936
1980-12-20 08:57:38,1,20.2,-1.2,-13.2,0.316228,2,1,104145.0,95783.1,1703,0.44276053,7.1987104,199.88696,252.26196,42.655,329.664,0.273242,-2.21981,41.4646,39.7651
1980-12-20 09:00:20,1,19.4667,-2.96667,-12.8667,0.424264,2,1,62027.8,64709.1,1703,0.44278759,7.1987906,199.86861,252.26704,31.505,337.189,9.1769,4.97461,32.0001,32.6844
1980-12-20 09:03:02,1,16.7333,-2.2,-10.4667,0.413656,2,1,152900.0,157579.0,1703,0.44281459,7.1988678,199.84631,252.27209,54.4105,337.065,18.2928,-10.4127,50.2414,51.0043
1980-12-20 09:05:44,1,17.0,-1.85,-10.4,0.269258,2,1,134934.0,97124.5,1703,0.44283265,7.1989193,199.82625,252.27547,41.1608,322.709,-0.105847,-8.64701,47.1975,40.0426
1980-12-20 09:08:26,-1,nan,nan,nan,nan,2,4,nan,nan,1703,0.44285965,7.1989965,199.80788,252.28053,nan,nan,nan,nan,nan,nan
1980-12-20 09:11:08,1,16.7,4.1,-15.6,0.223607,2,1,163825.0,122261.0,1703,0.44288671,7.1990738,199.78558,252.28558,45.7747,333.705,-12.9206,13.3298,52.0054,44.9265
1980-12-20 09:13:50,-1,nan,nan,nan,nan,1,4,nan,nan,1703,0.44290477,7.1991262,199.76552,252.28896,nan,nan,nan,nan,nan,nan
1980-12-20 09:16:32,1,15.75,2.15,-17.6,0.291548,1,1,75540.2,113136.0,1703,0.44293177,7.1992035,199.74715,252.29402,34.2527,343.81,-10.4558,28.2053,35.314,43.2173
1980-12-20 09:19:14,1,17.925,5.3,-14.9,0.57173,1,1,87415.6,118338.0,1703,0.44295883,7.1992807,199.72485,252.29907,37.5538,336.919,-18.1799,19.28,37.9885,44.1998
1980-12-20 09:21:56,1,16.85,5.7,-17.0,0.287228,1,1,79761.4,112373.0,1703,0.44297689,7.1993322,199.70479,252.30244,36.522,336.514,-15.5868,14.7216,36.2873,43.0713
1980-12-20 09:24:38,1,18.05,4.725,-16.45,0.465698,1,1,88011.6,109090.0,1703,0.44300389,7.1994104,199.68642,252.30751,36.7371,340.581,-10.5044,23.7533,38.1178,42.4375
1980-12-20 09:27:20,1,15.1,-4.95,-18.0,0.287228,2,1,79427.4,107854.0,1703,0.44303095,7.1994877,199.66412,252.31256,46.0279,348.853,9.22338,13.3362,36.2112,42.1964
1980-12-20 09:30:02,1,15.4,-2.2,-17.6,0.0,2,1,136056.0,94265.1,1703,0.44305801,7.1995649,199.64575,252.31763,38.0448,342.331,-10.3626,11.6395,47.3933,39.4488
1980-12-20 09:32:44,1,11.05,-9.0,-18.1,0.593717,2,1,95512.8,87956.0,1703,0.44307601,7.1996164,199.62569,252.321,37.4479,348.202,23.2549,14.4586,39.709,38.1058
1980-12-20 09:35:26,1,9.25,-7.6,-18.0,0.610328,2,1,143275.0,121665.0,1703,0.44310308,7.1996937,199.6073,252.32605,46.368,355.969,17.474,16.713,48.6344,44.8169
1980-12-20 09:38:08,1,9.1,-9.9,-18.9,0.591608,2,1,62880.4,100977.0,1703,0.44313008,7.1997719,199.58502,252.33112,32.3217,352.096,4.50647,26.0451,32.2193,40.829
1980-12-20 09:40:50,1,13.95,-10.05,-12.5,1.9685,2,1,60014.5,90257.7,1703,0.44314814,7.1998234,199.56496,252.33449,37.3618,347.427,31.1686,14.089,31.4765,38.6011
1980-12-20 09:43:32,1,16.9,-7.06667,-12.2,0.895669,2,1,174336.0,134486.0,1703,0.4431752,7.1999006,199.54657,252.33954,52.9638,329.788,16.9023,21.1142,53.6477,47.1191
1980-12-20 09:46:14,1,18.4,-7.2,-9.2,0.0,2,1,67922.9,123585.0,1703,0.4432022,7.1999779,199.52429,252.3446,35.5418,327.351,16.377,1.91062,33.4862,45.1691
1980-12-20 09:48:56,1,17.6,-7.6,-8.0,0.0,2,1,106424.0,153895.0,1703,0.44322026,7.2000303,199.50423,252.34798,49.0318,332.93,22.5604,-2.0829,41.9158,50.4046
1980-12-20 09:51:38,1,16.2,-7.55,-9.6,0.320156,2,1,138798.0,170267.0,1703,0.44324726,7.2001076,199.48584,252.35303,49.2962,329.36,18.1887,6.19129,47.8685,53.018
1980-12-20 09:54:20,1,12.0,-11.4,-11.2,2.31084,2,1,103696.0,148070.0,1703,0.44327432,7.2001848,199.46356,252.35809,47.7253,337.523,25.7161,4.34506,41.3752,49.4415
1980-12-20 09:57:02,1,13.2,-12.2,-8.8,0.4,2,1,110513.0,143533.0,1703,0.44330138,7.2002621,199.44518,252.36314,51.8795,348.855,44.8018,-1.32101,42.7134,48.6782
1980-12-20 09:59:44,1,16.3,-9.0,-11.0,0.0,2,1,93230.0,136433.0,1703,0.44331938,7.2003136,199.42511,252.36652,42.136,333.31,27.1935,7.4997,39.2316,47.4589
1980-12-20 10:02:26,1,14.5,-10.8,-7.0,0.0,2,1,147001.0,234146.0,1703,0.44334644,7.2003899,199.40282,252.37157,70.3904,334.811,26.4277,2.22128,49.2626,62.1729
1980-12-20 10:05:08,1,18.7,-0.3,-13.0,0.2,2,1,100917.0,184322.0,1703,0.4433735,7.2004652,199.38441,252.3766,48.9563,337.399,5.82445,10.0106,40.817,55.1628
1980-12-20 10:07:50,1,19.75,0.1,-11.8,0.33541,2,1,199739.0,163214.0,1703,0.44339156,7.2005148,199.36433,252.37996,61.1748,337.958,-2.86591,1.31375,57.4235,51.9083
1980-12-20 10:10:32,1,18.2,-1.0,-12.6,0.0,2,1,138360.0,181933.0,1703,0.44341856,7.2005901,199.34204,252.38501,60.7573,326.668,-2.37797,9.74917,47.7928,54.8041
1980-12-20 10:22:39,1,20.275,-7.625,-6.6,0.945384,2,1,96429.2,143433.0,1703,0.4435268,7.2008905,199.25282,252.40517,49.4447,344.559,-13.0692,3.83533,39.899,48.6611
1980-12-20 10:25:21,-1,nan,nan,nan,nan,2,3,nan,nan,1703,0.44355386,7.2009659,199.23442,252.4102,nan,326.757,20.4038,-11.2894,nan,nan
1980-12-20 10:26:42,1,17.025,-5.725,-13.95,2.7297,2,1,172659.0,262122.0,1703,0.44356287,7.2009907,199.2244,252.4119,70.3844,333.92,27.487,-8.47648,53.3891,65.7824
1980-12-20 10:28:04,1,19.975,1.725,-10.95,1.5752,2,1,127351.0,221530.0,1703,0.44358087,7.2010412,199.21213,252.41525,55.9785,322.044,7.10047,-0.933987,45.8521,60.4748
1980-12-20 10:29:25,-1,nan,nan,nan,nan,2,4,nan,nan,1703,0.44358993,7.201066,199.20209,252.41693,nan,nan,nan,nan,nan,nan
1980-12-20 10:30:46,1,20.3,3.975,-10.6,0.645659,2,1,130874.0,183231.0,1703,0.44359893,7.2010918,199.19205,252.41861,55.5402,315.87,-12.0726,1.66399,46.482,54.9993
1980-12-20 10:36:27,-1,nan,nan,nan,nan,2,4,nan,nan,1703,0.44365305,7.2012415,199.15135,252.4287,nan,nan,nan,nan,nan,nan
1980-12-20 10:37:48,1,17.675,-4.025,-12.95,0.62149,2,1,122240.0,181558.0,1703,0.44366205,7.2012663,199.14131,252.43037,52.2261,329.463,10.7697,17.7302,44.9225,54.7477
1980-12-20 10:38:52,1,17.05,-4.425,-13.0,0.787004,2,1,202883.0,218969.0,1703,0.4417575,7.2297668,198.55206,251.85284,64.8326,332.563,4.20308,14.8218,57.8736,60.1241
1980-12-20 10:39:09,1,15.875,-4.9,-14.55,0.603635,2,1,35475.5,106618.0,1703,0.44368011,7.2013168,199.12904,252.43373,29.8952,322.2,9.35384,8.20399,24.2004,41.954
1980-12-20 10:40:13,1,16.95,-4.8,-13.1,0.502494,2,1,81320.8,131576.0,1703,0.44368911,7.2013416,199.12291,252.43541,38.4762,331.46,16.1817,13.8581,36.6403,46.6065
1980-12-20 10:41:34,1,17.025,-3.0,-13.5,0.43229,2,1,95065.2,108070.0,1703,0.44369811,7.2013664,199.11287,252.43709,35.4653,332.031,8.10451,6.81069,39.6158,42.2387
1980-12-20 10:44:16,1,18.375,-8.1,-3.1,1.12999,2,1,84277.6,177243.0,1703,0.44372517,7.2014418,199.09058,252.44214,44.3853,324.882,17.6443,-16.3034,37.3004,54.0932
1980-12-20 10:45:37,1,16.2,-10.8,-4.8,1.36382,2,1,103824.0,201285.0,1703,0.44373417,7.2014675,199.08054,252.44382,60.9662,323.841,31.9937,-21.5419,41.4006,57.6452
1980-12-20 10:46:58,1,18.9667,-7.6,-4.93333,1.71205,2,1,157705.0,246792.0,1703,0.44374323,7.2014923,199.0705,252.4455,61.9149,323.543,13.1825,-21.4593,51.0247,63.8297
1980-12-20 10:48:19,1,17.375,-4.5,-11.6,0.449305,2,1,115243.0,148145.0,1703,0.44376123,7.2015419,199.06213,252.44885,49.5086,328.346,6.05316,4.6937,43.6179,49.454
1980-12-20 10:49:40,1,17.65,-6.1,-9.75,1.26491,2,1,268661.0,220243.0,1703,0.44377023,7.2015676,199.05209,252.45053,72.6493,327.998,15.2683,8.02875,66.5978,60.2988
1980-12-20 10:51:01,1,17.675,-7.15,-10.1,0.874285,2,1,122001.0,174194.0,1703,0.44378829,7.2016172,199.04373,252.45389,49.4844,328.424,16.4656,-3.09889,44.8787,53.6258
1980-12-20 10:52:22,1,16.9,-6.5,-10.4,0.2,2,1,48483.2,104890.0,1703,0.44379729,7.201642,199.03371,252.45558,29.5897,331.195,19.2752,9.49676,28.2913,41.6126
1980-12-20 10:53:43,1,18.85,-6.45,-8.2,0.52915,2,1,75490.1,124301.0,1703,0.44380635,7.2016678,199.01976,252.45726,36.3476,329.548,21.0393,-9.3396,35.3023,45.2998
1980-12-20 10:55:03,1,17.8667,-8.33333,-8.33333,1.0924,2,1,228207.0,157993.0,1703,0.44382435,7.2017174,199.0114,252.46062,65.1311,327.673,30.8841,4.16669,61.3793,51.0712
1980-12-20 10:59:33,1,9.7,-10.375,-16.6,1.3122,2,1,176488.0,189798.0,1703,0.44386041,7.2018175,198.97905,252.46733,53.7495,339.818,16.7301,13.3576,53.9778,55.9762
1980-12-20 11:00:28,1,9.75,-11.9,-15.8,1.37568,2,1,48938.0,175289.0,1703,0.44195202,7.2302504,198.39343,251.88953,40.433,347.506,25.1689,26.4107,28.4237,53.7941
1980-12-20 11:00:54,1,6.525,-13.275,-15.95,1.72083,2,1,246333.0,154562.0,1703,0.44386947,7.2018433,198.96902,252.46902,61.1629,336.466,24.5185,10.8093,63.7704,50.5137
1980-12-20 11:01:49,-1,nan,nan,nan,nan,2,4,nan,nan,1703,0.44387847,7.2018671,198.95897,252.47069,nan,nan,nan,nan,nan,nan
1980-12-20 11:03:10,1,11.025,-13.825,-11.2,0.365718,2,1,78440.9,132717.0,1703,0.44389647,7.2019157,198.95061,252.47404,34.6716,341.229,35.0112,10.0007,35.9856,46.8081
1980-12-20 11:04:31,1,10.125,-14.375,-9.9,1.05534,2,1,112080.0,183486.0,1703,0.44390553,7.2019396,198.94055,252.47571,56.2741,338.545,40.4357,-0.648063,43.0152,55.0376
1980-12-20 11:05:52,1,13.34,-12.16,-8.32,0.553534,2,1,52372.4,126345.0,1703,0.44391453,7.2019634,198.93051,252.47739,34.779,338.351,36.3499,-6.57345,29.4042,45.6706
1980-12-20 11:08:34,1,12.375,-8.675,-1.25,7.57471,2,1,83821.2,202008.0,1703,0.44394159,7.2020359,198.91209,252.48241,43.5357,354.906,50.1725,-6.44928,37.1993,57.7486
1980-12-20 11:09:55,1,16.45,-7.475,-0.5,0.603635,2,1,332126.0,227656.0,1703,0.44395059,7.2020607,198.89815,252.48409,74.9257,330.409,30.3652,-24.751,74.0474,61.3052
1980-12-20 11:11:16,1,13.5,-10.3,-8.6,1.66433,2,1,404223.0,286749.0,1703,0.44396865,7.2021093,198.88979,252.48744,94.8633,333.591,33.3293,-11.0625,81.6899,68.8032
1980-12-20 11:12:37,-1,nan,nan,nan,nan,2,3,nan,nan,1703,0.44397765,7.2021332,198.87973,252.48911,nan,363.202,41.6396,21.4214,nan,nan
1980-12-20 11:13:58,-1,nan,nan,nan,nan,2,4,nan,nan,1703,0.44398671,7.202157,198.86969,252.49078,nan,nan,nan,nan,nan,nan